Flag for United Kingdom Weather past 2 weeks in Gloucester, England, United Kingdom

Now
72 °F

Scattered clouds.


Feels Like: 75 °F
Forecast: 54 / 69 °F
Wind: 10 mph from South

Location: Staverton Private

Current Time: Aug 1, 2014 at 1:18:18 PM

Latest Report: Aug 1, 2014 at 12:50 PM


Visibility: N/A

Pressure: 29.74 "Hg

Humidity: 65%

Dew point: 59 °F

Location of GloucesterLocation

Historic Weather in Gloucester — Graph

°F

Gloucester temperature yesterday

Maximum temperature yesterday: 72 °F (at 11:20 AM)
Minimum temperature yesterday: 59 °F (at 6:50 AM)
Average temperature yesterday: 69 °F

Past Weeks' High & Low Weather Summary

 TemperatureHumidityPressure
High82 °F (Jul 23, 4:50 PM)94% (Jul 19, 9:20 AM)30.24 "Hg (Jul 19, 9:20 AM)
Low57 °F (Jul 28, 6:50 AM)32% (Jul 26, 3:20 PM)29.71 "Hg (Jul 19, 3:50 PM)
Average72 °F59%30.00 "Hg
* Reported Jul 17 12:20 PM — Aug 1 12:20 PM, Gloucester, Weather by CustomWeather, © 2014

Note: Actual official high and low records may vary slightly from our data, if they occured in-between our weather recording intervals... More about our weather records

Advertising

Gloucester weather history for previous 24 hours

 ConditionsComfort  
Time TempWeatherWind HumidityBarometerVisibility
12:20 PM
Aug 1
72 °FScattered clouds.8 mph69%29.74 "HgN/A
11:50 AM72 °FScattered clouds.9 mph65%29.74 "HgN/A
11:20 AM72 °FScattered clouds.10 mph65%29.74 "HgN/A
10:50 AM70 °FScattered clouds.9 mph69%29.77 "HgN/A
10:20 AM68 °FPassing clouds.10 mph73%29.77 "HgN/A
9:50 AM66 °FPassing clouds.10 mph78%29.77 "HgN/A
9:20 AM64 °FPassing clouds.5 mph83%29.77 "HgN/A
8:50 AM66 °FScattered clouds.6 mph78%29.77 "Hg6 mi
8:20 AM64 °FPassing clouds.6 mph83%29.77 "Hg6 mi
6:50 PM
Jul 31
68 °FScattered clouds.9 mph78%29.89 "HgN/A
6:20 PM68 °FSprinkles. Scattered clouds.9 mph78%29.89 "HgN/A
5:50 PM70 °FSprinkles. Scattered clouds.12 mph73%29.89 "HgN/A
5:20 PM70 °FScattered showers. Scattered clouds.9 mph73%29.89 "HgN/A
4:50 PM70 °FScattered showers. Scattered clouds.9 mph78%29.89 "HgN/A
4:20 PM70 °FScattered showers. Scattered clouds.10 mph78%29.92 "HgN/A
3:50 PM72 °FScattered showers. Scattered clouds.16 mph69%29.92 "HgN/A
3:20 PM72 °FScattered clouds.13 mph65%29.92 "HgN/A
2:50 PM70 °FScattered clouds.12 mph73%29.92 "HgN/A
2:20 PM72 °FScattered clouds.12 mph69%29.92 "HgN/A
1:50 PM72 °FScattered clouds.12 mph69%29.92 "HgN/A
1:20 PM72 °FScattered clouds.9 mph69%29.92 "HgN/A
Weather by CustomWeather, © 2014

See weather overviewHow to use our weather pages